Find Starlink 37751

NORAD ID: 100491 Int'l Des: 2026-196 Owner: SPXS Country: US Constellation: starlink operational

Current View

Loading 3D Globe...

About Starlink 37751

Starlink 37751 (NORAD 100491) is a starlink constellation satellite launched Aug 25, 2026 by SPXS of US. with a mass of 575.00 kg.

Upcoming Passes

Passes for default location (London). Set your location on the main map for personalized predictions.

Altitude History

Loading altitude history...

Two-Line Element Set

1 A0491U 26196U 26258.29036561 -.00767402 00000-0 -45358-2 0 9998
2 A0491 53.1572 267.6892 0003522 184.4047 175.6944 15.79398813 4531
Epoch: Sep 15, 2026 • Age: 128 hours

Current Status

Altitude 359.8 km
Apogee / Perigee N/A
Velocity 7.70 km/s
Sub-Earth Point 53.03°N, 95.15°E
Launch Date Aug 25, 2026
Age 26 days
Type internet

Technical Details

Classification Payload
Mass 575.00 kg
Dry Mass 530.00 kg
Length 0.30 m
Span 29.00 m
Shape ? Box + pan
Manufacturer SPXS
Bus Type Starlink V2MO
Phase Status In Orbit
Owner/State SPXS/US

Most Searched